Showing default

COSMOS 952, 10358

Orbit data source: Space-Track

COSMOS 952, 10358 is a payload satellite owned by VMF (CIS) in LEO that was launched on Fri, 16 Sep 1977 UTC via a TSIKLON-2 launch vehicle from the Tyuratam Missile And Space Complex (TTMTR). Payload-class satellites include a variety of spacecraft equipped with specific instruments for various scientific and technological missions. These include communications satellites like Starlink; space stations such as the ISS; scientific satellites like the Hubble; Earth observation satellites from companies like Planet Labs, Umbra, and HawkEye 360; GPS; miniature CubeSats for education and research; and military/defense satellites.

Loading next visibility...
Identifier
10358, 1977-088A
Orbit
LEO
Country
Flag of CISCIS
Related business
Manufacturer
KOMET/ARSL?
Mission
Spacecraft
Bus & Motor
US-A REACTOR, Unknown motor
Mass
3,800 kg wet, 1,150 kg dry
Launch date (UTC)
1977-09-16 (49 years ago)
Launch vehicle
TSIKLON-2
Launch site
Tyuratam Missile And Space Complex (TTMTR)
Object type
Payload
Rocket body
Debris
Shape & HBR
Unknown
Radar Cross Section
Large (>1 m²)

Expand to show TLE details & history
Last TLE update: 2 days ago

TLE from 2 days ago
0 COSMOS 952
1 10358U 77088A   26171.30994597 -.00000058  00000-0  27632-4 0  9998
2 10358  64.9350 127.1523 0043729   2.1500 357.9739 13.83744524463614
Epoch: 2026-06-20T07:26Z
TLE epoch observation values (Epoch: 2026-06-20T07:26:19.331Z)
Latitude
-0.00006°
Longitude
107.04532°
Altitude
920.527 km
Speed
7.408 km/s
True Right ascension
08h 28m 36s
True Declination
0° 00' 00"
Sunlit
Object was in daylight at epoch
Visualization orbit readout
Latitude
Unknown
Longitude
Unknown
Altitude
Unknown
Speed
Unknown
Apparent Right ascension
Unknown
Apparent Declination
Unknown
Sunlit
N/A
Visualization observer readout
Local Sidereal Time
23:08:27
Azimuth
Unknown
Elevation
Unknown
Doppler factor
Unknown
Orbital elements
Apogee altitude
981.295 km
Perigee altitude
917.211 km
Semi-major axis
7,327.39 km
Eccentricity
0.00437
Inclination
64.935°
RAAN
127.1523°
Arg. of periapsis
2.15°
True anomaly
357.95609°
Mean anomaly
357.9739°
Eccentric anomaly
357.965°
Mean motion
3.46034 °/min
Orbital period
104.04 mins
BSTAR
0.000027632
Loading maneuver chart data...
Computing Atmospheric mass density...
Loading historical data...
Loading historical data...
Loading historical data...
Loading historical data...
Loading historical data...
Loading historical data...
Loading historical data...

Documentation

Showing up to 5 results
|